This is the latest recevied weather packets stored in our database for station/object WA1TYB-13. If no packets are shown the sender has not sent any weather packets the latest 10 day(s).
| Time | Temp. | Humidity | Pressure | Rain* | Wind** | Luminosity | Snow |
|---|---|---|---|---|---|---|---|
| 1778097377 | 16.11° C | 30% | 1015.3 hPa | 0 mm | - | 568 W/m² | - |
| 1778097074 | 15.56° C | 30% | 1015.6 hPa | 0 mm | - | 615 W/m² | - |
| 1778096771 | 15.56° C | 34% | 1015.6 hPa | 0 mm | - | 680 W/m² | - |
| 1778096467 | 15° C | 32% | 1015.6 hPa | 0 mm | - | 660 W/m² | - |
| 1778096166 | 15.56° C | 31% | 1015.8 hPa | 0 mm | - | 628 W/m² | - |
| 1778095862 | 15° C | 33% | 1015.8 hPa | 0 mm | - | 695 W/m² | - |
| 1778095559 | 14.44° C | 34% | 1015.9 hPa | 0 mm | - | 680 W/m² | - |
| 1778095255 | 14.44° C | 31% | 1016.1 hPa | 0 mm | - | 680 W/m² | - |
| 1778094952 | 14.44° C | 34% | 1016.1 hPa | 0 mm | - | 656 W/m² | - |
| 1778094648 | 13.89° C | 32% | 1016.1 hPa | 0 mm | - | 624 W/m² | - |
| 1778094345 | 14.44° C | 33% | 1016.2 hPa | 0 mm | - | 639 W/m² | - |
| 1778094042 | 13.89° C | 34% | 1016.2 hPa | 0 mm | - | 642 W/m² | - |
| 1778093739 | 13.33° C | 31% | 1016.6 hPa | 0 mm | - | 621 W/m² | - |
| 1778093436 | 13.33° C | 34% | 1016.6 hPa | 0 mm | - | 605 W/m² | - |
| 1778093133 | 13.33° C | 33% | 1016.5 hPa | 0 mm | - | 636 W/m² | - |
| 1778092831 | 12.78° C | 34% | 1017.2 hPa | 0 mm | - | 644 W/m² | - |
| 1778092526 | 12.78° C | 34% | 1016.9 hPa | 0 mm | - | 626 W/m² | - |
| 1778092223 | 12.78° C | 32% | 1017 hPa | 0 mm | - | 623 W/m² | - |
| 1778091920 | 12.78° C | 34% | 1017 hPa | 0 mm | - | 641 W/m² | - |
| 1778091618 | 12.22° C | 34% | 1017.2 hPa | 0 mm | - | 642 W/m² | - |
| 1778091315 | 12.22° C | 34% | 1017.5 hPa | 0 mm | - | 640 W/m² | - |
| 1778091012 | 11.67° C | 38% | 1017.4 hPa | 0 mm | - | 646 W/m² | - |
| 1778090709 | 11.67° C | 35% | 1017.6 hPa | 0 mm | - | 659 W/m² | - |
| 1778090404 | 11.67° C | 34% | 1017.5 hPa | 0 mm | - | 682 W/m² | - |
| 1778090101 | 11.11° C | 36% | 1017.8 hPa | 0 mm | - | 669 W/m² | - |
* Rain latest hour (hover to see other rain measurements)
** Current wind speed in m/s (hover to see current wind gust speed)